Starlink 33834

operational
NORAD ID: 63586 Int'l Des: 2025-076 Owner: SPXS Country: US Constellation: starlink
LEOCIRCULAR

Starlink 33834について

説明を読み込み中...

リアルタイム位置

3D地球を読み込み中...

次回通過

高度履歴

Altitude vs Time

uPlot chart will show altitude changes over time

軌道要素

1 63586U 25076T 25351.26080865 .00023064 00000-0 84450-3 0 9998
2 63586 43.0010 67.2396 0000322 290.4045 69.6772 15.27600595 39225
Epoch: Dec 17, 2025 • Age: 10 hours

現在のステータス

高度 483.5 km
速度 7.63 km/s
衛星直下点 29.22°N, 136.97°E
打ち上げ日 Apr 14, 2025
運用期間 0.6 years
タイプ internet

技術仕様

分類 Payload
質量 575.00 kg
乾燥質量 530.00 kg
総質量 575.00 kg
長さ 0.30 m
直径 4.10 m
スパン 29.00 m
形状 Box + pan
製造者 SPXS
バスタイプ Starlink V2MO
フェーズステータス In Orbit
所有者/国 SPXS/US

大規模コンステレーション

Loading constellations...